GW2072 Weather Reports


time (UTC)temp
C
wind
direction
speed
KPH
gust
KPH
rain 1hr
cm
rain 24hr
cm
rain mn
cm
humidity
%
barometer
mb
20260507093017 4 281 3.2 11.3 0.00 0.00 0.00 71 1014.3
20260507091533 4 281 4.8 9.7 0.00 0.00 0.00 71 1014.3
20260507090020 4 309 3.2 8.0 0.00 0.00 0.00 71 1014.4
20260507084527 4 284 3.2 8.0 0.00 0.00 0.00 71 1014.3
20260507083028 4 300 3.2 6.4 0.00 0.00 0.00 71 1014.4
20260507081542 4 305 3.2 8.0 0.00 0.00 0.00 70 1014.5
20260507080009 4 274 3.2 6.4 0.00 0.00 0.00 70 1014.5
20260507074508 5 291 3.2 9.7 0.00 0.00 0.00 69 1014.6
20260507073006 5 298 4.8 8.0 0.00 0.00 0.00 69 1014.4
20260507071510 5 295 4.8 8.0 0.00 0.00 0.00 68 1014.6
20260507070013 6 294 4.8 9.7 0.00 0.00 0.00 67 1014.6
20260507064515 6 311 8.0 12.9 0.00 0.00 0.00 67 1014.6
20260507063006 6 307 8.0 14.5 0.00 0.00 0.00 66 1014.7
20260507061522 6 321 6.4 12.9 0.00 0.00 0.00 67 1014.8
20260507060021 6 303 6.4 9.7 0.00 0.00 0.00 68 1014.6
20260507054520 6 282 4.8 8.0 0.00 0.00 0.00 69 1014.5
20260507053017 6 307 3.2 8.0 0.00 0.00 0.00 67 1014.5
20260507051504 7 286 3.2 8.0 0.00 0.00 0.00 67 1014.5
20260507050016 7 285 3.2 9.7 0.00 0.00 0.00 66 1014.5
20260507044526 7 269 3.2 8.0 0.00 0.00 0.00 65 1014.5
20260507043018 7 272 4.8 9.7 0.00 0.00 0.00 64 1014.4
20260507041520 7 260 1.6 4.8 0.00 0.00 0.00 65 1014.5
20260507040004 7 255 3.2 4.8 0.00 0.00 0.00 63 1014.5
20260507034510 7 243 3.2 3.2 0.00 0.00 0.00 63 1014.5
20260507033018 7 237 0.0 1.6 0.00 0.00 0.00 66 1014.6
20260507031519 7 23 0.0 0.0 0.00 0.00 0.00 66 1014.5
20260507030022 7 23 0.0 0.0 0.00 0.00 0.00 66 1014.6
20260507024522 7 23 0.0 0.0 0.00 0.00 0.00 64 1014.6
20260507023014 7 23 0.0 0.0 0.00 0.00 0.00 63 1014.6
20260507021517 8 24 0.0 0.0 0.00 0.00 0.00 64 1014.5
20260507020022 8 24 0.0 0.0 0.00 0.00 0.00 64 1014.5
20260507014527 8 23 0.0 0.0 0.00 0.00 0.00 63 1014.3
20260507013021 8 23 0.0 0.0 0.00 0.03 0.00 60 1014.2
20260507011516 8 23 0.0 0.0 0.00 0.03 0.00 58 1014.2
20260507010020 8 23 0.0 0.0 0.00 0.03 0.00 56 1014.1
20260507004523 9 24 0.0 1.6 0.00 0.05 0.00 56 1014.0
20260507003026 10 23 0.0 3.2 0.00 0.05 0.00 53 1013.8
20260507001526 10 321 0.0 4.8 0.00 0.08 0.00 51 1013.8
20260507000022 11 319 1.6 4.8 0.00 0.08 0.00 49 1013.8
20260506234521 11 317 1.6 6.4 0.00 0.10 0.00 50 1013.8
20260506233024 11 301 11.3 14.5 0.00 0.10 0.00 46 1013.8
20260506231527 12 297 9.7 12.9 0.00 0.10 0.00 47 1013.7
20260506230026 11 288 4.8 12.9 0.00 0.13 0.00 50 1013.8
20260506224518 12 307 6.4 12.9 0.00 0.13 0.00 50 1013.7
20260506223023 12 259 6.4 16.1 0.00 0.13 0.00 47 1013.6
20260506221531 12 241 6.4 19.3 0.00 0.18 0.00 48 1013.6
20260506220033 12 293 8.0 12.9 0.00 0.23 0.00 45 1013.6
20260506214502 12 281 6.4 14.5 0.00 0.30 0.00 46 1013.6
20260506213009 12 300 12.9 19.3 0.00 0.38 0.00 44 1013.6
20260506211504 12 297 12.9 24.1 0.00 0.38 0.00 46 1013.7
20260506210009 12 311 8.0 17.7 0.00 0.38 0.00 48 1013.8
20260506204512 12 317 11.3 17.7 0.00 0.38 0.00 47 1013.7
20260506203002 12 325 9.7 17.7 0.00 0.38 0.00 46 1013.6
20260506201506 12 286 9.7 20.9 0.00 0.38 0.00 49 1013.7
20260506200008 12 261 8.0 20.9 0.00 0.41 0.00 47 1013.8
20260506194510 12 257 9.7 16.1 0.00 0.41 0.00 47 1013.9
20260506193016 12 281 8.0 17.7 0.00 0.43 0.00 48 1014.0
20260506191508 12 312 8.0 17.7 0.00 0.46 0.00 47 1013.9
20260506190005 11 276 6.4 20.9 0.00 0.51 0.00 50 1014.0
20260506184507 11 285 6.4 14.5 0.00 0.51 0.00 47 1014.1
20260506183012 11 307 9.7 16.1 0.00 0.53 0.00 47 1014.2
20260506181518 11 280 8.0 12.9 0.00 0.53 0.00 45 1014.1
20260506180021 12 290 9.7 16.1 0.00 0.53 0.00 50 1014.0
20260506174505 11 286 8.0 19.3 0.00 0.53 0.00 44 1014.0
20260506173008 11 25 8.0 19.3 0.00 0.53 0.00 48 1013.7
20260506171513 12 357 1.6 12.9 0.00 0.56 0.00 50 1014.0
20260506170018 12 17 1.6 11.3 0.00 0.56 0.00 48 1014.0
20260506164524 11 319 8.0 16.1 0.00 0.56 0.00 50 1014.0
20260506163010 11 314 6.4 16.1 0.00 0.56 0.00 48 1014.0
20260506161510 11 314 11.3 20.9 0.00 0.56 0.00 45 1014.1
20260506160017 12 75 4.8 16.1 0.00 0.56 0.00 49 1014.2
20260506154527 12 323 8.0 19.3 0.00 0.56 0.00 45 1014.2
20260506153024 12 18 8.0 17.7 0.00 0.56 0.00 50 1013.9
20260506151506 11 311 6.4 14.5 0.00 0.56 0.00 53 1014.0
20260506150014 11 11 6.4 14.5 0.00 0.56 0.00 51 1013.8
20260506144519 11 21 3.2 14.5 0.00 0.56 0.00 52 1013.6
20260506143022 10 297 12.9 19.3 0.00 0.56 0.00 50 1013.4
20260506141525 10 24 3.2 12.9 0.00 0.56 0.00 56 1013.4
20260506140010 10 9 4.8 11.3 0.00 0.56 0.00 54 1013.3
20260506134515 10 13 1.6 16.1 0.00 0.56 0.00 59 1013.3
20260506133021 10 293 3.2 16.1 0.00 0.56 0.00 59 1013.1
20260506131524 9 9 3.2 12.9 0.00 0.56 0.00 62 1012.8
20260506130026 9 19 3.2 8.0 0.00 0.56 0.00 61 1012.7
20260506124514 8 32 4.8 9.7 0.00 0.56 0.00 60 1012.5
20260506123018 8 310 3.2 9.7 0.00 0.56 0.00 63 1012.5
20260506121523 7 335 3.2 12.9 0.00 0.56 0.00 68 1012.5
20260506120006 7 324 1.6 9.7 0.00 0.56 0.00 70 1012.1
20260506114510 6 306 3.2 6.4 0.00 0.56 0.00 72 1011.9
20260506113018 6 326 3.2 4.8 0.00 0.56 0.00 73 1011.5
20260506111526 6 311 0.0 6.4 0.00 0.56 0.00 75 1011.3
20260506110023 6 340 1.6 9.7 0.00 0.56 0.00 76 1011.1
20260506104507 6 314 1.6 6.4 0.00 0.56 0.00 80 1010.7
20260506103018 6 323 3.2 6.4 0.00 0.56 0.00 83 1010.8
20260506101517 6 319 1.6 4.8 0.00 0.56 0.00 85 1010.4
20260506100019 6 310 3.2 4.8 0.00 0.56 0.00 85 1010.5
20260506094524 6 294 3.2 3.2 0.00 0.56 0.00 85 1010.4